Regional Weather Roundup
Issued by NWS

Home | Current Version | Previous Version | Graphics & Text | Print | Product List | Glossary On
Versions: 1 2 3 4 5 6 7 8 9 10 11 12 13 14 15 16 17 18 19 20 21 22 23 24 25 26 27 28 29 30 31 32 33 34 35 36 37 38 39 40 41 42 43 44 45 46 47 48 49 50
000
ASUS43 KFSD 041110
RWRSD

WEATHER ROUNDUP FOR SOUTH DAKOTA
NATIONAL WEATHER SERVICE SIOUX FALLS SD
600 AM CDT WED MAY 04 2016

NOTE: "FAIR" INDICATES FEW OR NO CLOUDS BELOW 12,000 FEET WITH NO
SIGNIFICANT WEATHER AND/OR OBSTRUCTIONS TO VISIBILITY.


SDZ001>005-009-010-012>017-041200-
NORTHWEST AND NORTH CENTRAL SOUTH DAKOTA

CITY           SKY/WX    TMP DP  RH WIND       PRES   REMARKS
BUFFALO          N/A     52  37  56 CALM      30.07S
FAITH            N/A     47  30  51 SE9       30.12R
MOBRIDGE       CLEAR     38  32  79 N3        30.09R
$$

SDZ012>016-024>037-041>051-057-063-072>074-041200-
SOUTHWEST AND SOUTH CENTRAL SOUTH DAKOTA

CITY           SKY/WX    TMP DP  RH WIND       PRES   REMARKS
RAPID CTY ARPT CLEAR     48  36  63 NW10      30.13S
PIERRE         CLEAR     38  31  76 NW6       30.10S
CUSTER         CLEAR     42  30  62 NW8       30.22R
ELLSWORTH AFB  CLEAR     44  36  73 VRB3      30.13R
PHILIP         CLEAR     38  36  92 W6        30.12S
PINE RIDGE     CLEAR     34  32  92 CALM      30.15R
WINNER         FAIR      40  35  83 W7        30.11R
$$

SDZ004>011-016>023-039-040-041200-
NORTHEAST SOUTH DAKOTA

CITY           SKY/WX    TMP DP  RH WIND       PRES   REMARKS
ABERDEEN       CLEAR     38  31  76 NW9       30.08R
WATERTOWN      CLEAR     38  30  73 N8        30.03R
BROOKINGS      CLEAR     38  31  76 NW6       30.02R
SISSETON         N/A     40  31  70 NW9       30.04R
$$

SDZ017-020-022-023-036>040-048>070-041200-
SOUTHEAST SOUTH DAKOTA

CITY           SKY/WX    TMP DP  RH WIND       PRES   REMARKS
SIOUX FALLS    CLEAR     43  33  68 N9        30.02R
HURON          CLEAR     36  33  89 NW8       30.07R
CHAMBERLAIN    CLEAR     40  35  82 NW6       30.10R
MITCHELL       CLEAR     40  35  83 NW8       30.06R
YANKTON        CLEAR     41  34  75 NW9       30.02S
$$

ABBREVIATIONS USED IN REMARKS
   TC - TEMPERATURE IN CELSIUS
  WCI - WIND CHILL INDEX
   HX - HEAT INDEX
  VSB - VISIBILITY




USA.gov is the U.S. government's official web portal to all federal, state and local government web resources and services.